Weather in Nignaya Tura

Russia / Sverdlovsk Oblast     58°37′51″N   59°51′07″E
В апреле 2022 года жителям России запретили посещать сайт meteo.paraplan.net по решению Генеральной прокуратуры. Аудитория сайта уменьшилась в 10 раз. Владельцы сайта не видят смысла в поддержке погодного сервера в таких условиях. Сайт будет закрыт в октябре.
temp.,
°C
wind,
m/s
gust,
m/s
humid.,
%
clouds,
%
prec.,
mm/h
press.,
hPa
HPBL,
m
4 october, tue
tue423:00+9sw41177100 1.4 1023446
02:00+8wsw3977100 0.0 1024253
05:00+7wsw3979100 0.0 1026186
08:00+7sw3877100 0.0 1027173
11:00+12wsw4957100 0.0 1027361
14:00+15wsw4844100 0.0 1028590
17:00+13sw3848100 0.0 1029425
20:00+8sw23695 0.0 103144
5 october, wed
wed523:00+6sw23730 0.0 103141
02:00+6sw2268100 0.0 103051
05:00+5sw2269100 0.0 103021
08:00+5sw2265100 0.0 103041
11:00+8sw2952100 0.0 1029362
14:00+11sw3841100 0.0 1028689
17:00+10sw3647100 0.0 1028371
20:00+6ssw2364100 0.0 102853
6 october, thu
thu623:00+7ssw2759100 0.0 1027254
02:00+7s2559100 0.0 1026149
05:00+7ssw2457100 0.0 1024108
08:00+6sw2867100 0.2 1024434
11:00+7se1469100 0.2 1022285
14:00+11sse3549100 0.0 1019718
17:00+10ese2255100 0.0 101750
20:00+8ssw2675100 0.1 1017201
7 october, fri
fri723:00+8s3889100 0.6 1016573
02:00+7ssw3691100 0.3 1015371
05:00+7sw2491100 0.3 1014211
08:00+6sw2691100 0.0 1013324
11:00+7sw368596 0.1 1013727
14:00+9sw466375 0.1 10111265
17:00+7sw4881100 0.2 1011709
20:00+6sw498194 0.0 1010808
8 october, sat
sat823:00+6sw4985100 0.0 1009712
02:00+6sw3791100 0.4 10071049
05:00+4w3996100 2.1 1006723
08:00+7wnw51185100 0.4 1006869
11:00+8wnw5117445 0.4 10081096
14:00+7nw5118196 0.1 10101102
17:00+8nw51167100 0.1 10121293
20:00+6wnw51173100 0.1 10151224